Probability
0 0 0 0 0 0 0 0 0 0 10 3 6 16 16 19 10 6 29 71 84 100 100 100 100 100 100 100 100 100 100 100 100 100 100 100 100 100 100 100 100 100 100 100 100 100 100 100 100
0 0 0 0 0 0 0 0 3 3 6 10 26 42 52 45 52 65 71 77 90 100 100 100 100 100 100 100 100 100 100 100 100 100 100 100 100 100 100 100 100 100 100 100 100 100 100 100 100
0 0 0 0 0 0 0 0 3 6 6 16 26 45 58 65 71 74 74 90 97 97 97 100 100 100 100 100 100 100 100 100 100 100 100 100 100 100 100 100 100 100 100 100 100 100 100 100 100
0 0 0 0 0 0 0 0 6 3 3 23 35 45 52 61 77 84 87 97 97 97 97 97 97 100 100 100 100 100 100 100 100 100 100 100 100 100 100 100 100 100 100 100 100 100 100 100 100
0 0 0 0 0 0 0 0 0 3 10 35 48 48 55 68 81 84 90 94 90 94 97 97 97 97 97 100 100 100 100 100 100 100 100 100 100 100 100 100 100 100 100 100 100 100 100 100 100
0 0 0 0 0 0 0 0 3 3 19 19 32 45 55 61 77 81 84 87 87 87 87 87 94 94 94 97 100 100 100 100 100 100 100 100 100 100 100 100 100 100 100 100 100 100 100 100 100
0 0 0 0 0 0 0 0 3 10 13 19 32 52 58 65 65 87 87 84 84 84 87 87 87 90 94 94 94 94 94 100 100 100 100 100 100 100 100 100 100 100 100 100 100 100 100 97 100
0 0 0 0 0 0 0 3 6 10 16 26 32 58 65 58 71 58 65 65 65 71 71 81 84 90 90 90 90 90 94 94 97 97 97 100 100 100 100 100 100 100 100 100 100 100 97 97 97
0 0 0 0 0 0 3 3 13 23 29 35 45 45 55 55 55 48 52 55 55 61 65 65 71 74 77 84 87 87 87 87 90 90 94 84 81 84 90 94 100 97 94 97 97 100 100 90 90
0 0 0 0 0 3 3 6 13 19 19 35 42 45 48 48 45 42 45 48 55 48 52 52 55 65 68 71 68 68 71 71 65 65 65 61 65 65 77 81 90 94 90 90 90 94 87 77 68
0 0 0 0 0 0 6 6 10 19 13 35 42 39 42 42 39 35 39 35 35 42 48 48 45 58 61 55 58 55 55 58 61 61 58 55 52 52 61 52 52 52 61 58 58 65 65 58 55
0 0 0 0 3 3 3 6 6 13 13 26 32 32 23 23 26 29 29 29 29 35 42 42 39 35 48 48 48 52 48 48 48 58 55 48 39 29 29 29 32 32 42 42 42 42 42 39 35
0 0 0 0 0 3 3 3 10 6 13 16 19 26 26 23 16 16 19 29 26 32 32 29 32 29 32 39 39 35 42 42 39 42 39 39 32 26 19 23 32 32 29 26 23 23 26 29 26
0 0 3 3 0 3 6 6 6 3 6 19 16 16 16 19 19 19 19 19 23 26 29 23 19 26 19 23 29 32 35 39 35 29 35 42 23 19 6 19 19 19 16 13 13 6 6 3 6
0 0 3 3 0 3 0 3 13 10 10 16 16 16 13 13 16 13 16 16 19 23 26 19 16 16 13 13 16 29 23 23 26 23 23 32 29 23 10 10 13 10 3 6 6 10 3 3 3
0 0 0 3 3 3 0 0 19 13 16 13 16 19 16 13 13 13 10 13 16 19 19 13 13 10 10 10 13 19 16 16 16 19 19 23 26 16 13 13 10 0 3 3 3 3 3 0 0
0 0 0 3 3 3 0 3 19 16 13 10 13 19 16 13 10 10 10 13 16 10 6 10 10 10 10 13 16 16 16 16 10 10 10 13 13 13 13 10 6 3 3 3 3 3 0 0 0
0 0 0 0 6 6 6 10 26 19 23 10 13 16 13 16 10 6 13 10 10 6 6 10 10 10 10 13 13 13 10 6 6 6 10 10 6 10 10 6 0 0 3 3 0 0 0 0 0
0 0 0 0 0 10 6 13 23 19 16 13 13 10 19 10 10 10 6 6 6 6 6 6 6 10 6 10 10 13 13 6 6 6 6 10 10 10 10 10 3 3 0 0 0 0 0 0 0
0 0 0 6 6 3 6 6 19 16 19 19 13 13 13 13 13 10 6 6 6 6 6 6 6 6 3 3 3 6 6 6 6 10 10 10 10 10 6 3 0 0 3 3 0 0 0 0 0
0 0 0 3 3 3 3 3 13 16 16 16 10 13 10 13 13 6 6 6 6 3 3 3 3 6 6 6 6 6 6 6 6 6 3 3 3 3 3 3 3 3 0 3 3 3 3 0 0
0 0 0 0 0 0 0 3 6 10 10 10 3 3 13 16 6 6 6 3 3 3 3 3 3 3 6 6 6 6 6 6 6 6 0 0 0 0 0 0 0 0 3 3 3 3 3 3 3
0 0 0 0 0 0 0 0 0 3 6 6 6 6 13 6 10 10 6 3 3 3 3 3 3 3 3 6 6 6 6 6 3 0 0 0 0 0 0 0 0 0 0 0 0 3 3 3 3
0 0 0 0 0 0 0 0 0 0 6 6 6 10 13 10 10 6 3 3 3 3 3 3 3 3 3 3 6 6 6 3 0 0 0 0 0 0 0 0 0 0 0 0 0 0 0 3 3
0 0 0 0 0 0 0 0 0 0 0 6 6 6 10 10 6 3 3 3 3 3 3 3 3 3 3 3 3 3 6 3 0 0 0 0 0 0 0 0 0 0 0 0 0 0 0 0 3
0 0 0 0 0 0 0 0 0 0 0 3 6 10 10 6 0 0 0 0 0 3 3 3 3 3 3 0 0 0 0 0 0 0 0 0 0 0 0 0 0 0 0 0 0 0 0 0 0
0 0 0 0 0 0 0 0 0 0 3 0 6 6 6 3 0 0 0 0 0 0 0 3 0 0 0 0 0 0 0 0 0 0 0 0 0 0 0 0 0 0 0 0 0 0 0 0 0
0 0 0 0 0 0 0 0 0 0 3 3 6 6 6 0 0 0 0 0 0 0 0 0 0 0 0 0 0 0 0 0 0 0 0 0 0 0 0 0 0 0 0 0 0 0 0 0 0
0 0 0 0 0 0 0 0 0 0 3 3 6 6 0 0 0 0 0 0 0 0 0 0 0 0 0 0 0 0 0 0 0 0 0 0 0 0 0 0 0 0 0 0 0 0 0 0 0
0 0 0 0 0 0 0 0 0 0 3 3 6 3 0 0 0 0 0 0 0 0 0 0 0 0 0 0 0 0 0 0 0 0 0 0 0 0 0 0 0 0 0 0 0 0 0 0 0
Height
5878 5879 5881 5882 5883 5884 5883 5884 5884 5885 5886 5888 5889 5890 5890 5891 5892 5895 5894 5893 5893 5893 5893 5894 5894 5895 5895 5896 5897 5897 5898 5899 5900 5901 5902 5903 5903 5904 5904 5905 5905 5905 5905 5905 5905 5905 5904 5904 5903
5876 5877 5879 5880 5881 5881 5881 5881 5882 5883 5885 5886 5887 5888 5889 5889 5890 5891 5891 5891 5891 5891 5891 5892 5892 5893 5894 5894 5895 5896 5897 5898 5899 5900 5901 5901 5902 5903 5903 5903 5904 5904 5904 5904 5904 5904 5904 5903 5903
5873 5875 5877 5878 5878 5878 5878 5879 5880 5881 5883 5884 5885 5886 5887 5888 5888 5889 5889 5889 5889 5889 5889 5890 5891 5891 5892 5893 5893 5894 5895 5896 5897 5898 5899 5900 5900 5901 5901 5902 5902 5902 5903 5903 5903 5903 5903 5902 5902
5870 5872 5874 5876 5875 5875 5876 5876 5878 5880 5882 5883 5883 5885 5885 5886 5886 5887 5887 5887 5887 5887 5887 5888 5889 5889 5890 5891 5891 5892 5893 5894 5895 5896 5897 5898 5898 5899 5899 5900 5900 5901 5901 5901 5901 5901 5901 5901 5901
5867 5869 5871 5872 5872 5872 5873 5874 5876 5878 5880 5881 5882 5883 5883 5884 5884 5884 5885 5885 5885 5885 5885 5886 5886 5887 5888 5888 5889 5890 5891 5892 5893 5894 5895 5896 5896 5897 5897 5898 5898 5899 5899 5899 5899 5899 5899 5899 5899
5865 5867 5869 5869 5869 5870 5870 5871 5874 5876 5878 5879 5880 5881 5881 5882 5882 5882 5882 5882 5882 5883 5883 5883 5884 5884 5885 5886 5887 5888 5889 5890 5891 5892 5893 5893 5894 5894 5895 5895 5896 5896 5896 5896 5897 5897 5897 5897 5897
5862 5864 5865 5866 5867 5867 5868 5870 5872 5874 5876 5877 5878 5879 5878 5879 5879 5879 5880 5880 5880 5880 5880 5880 5880 5881 5882 5883 5884 5885 5886 5887 5888 5889 5890 5890 5891 5892 5892 5893 5893 5893 5893 5893 5894 5894 5894 5894 5894
5858 5861 5862 5863 5864 5865 5866 5868 5870 5872 5873 5875 5875 5876 5876 5876 5876 5876 5876 5877 5876 5876 5876 5876 5877 5878 5878 5879 5881 5882 5883 5884 5885 5886 5887 5888 5888 5889 5889 5890 5890 5890 5890 5890 5890 5890 5891 5891 5891
5855 5858 5858 5860 5861 5862 5864 5866 5868 5870 5871 5872 5873 5873 5873 5873 5873 5873 5873 5873 5873 5873 5873 5873 5873 5874 5875 5876 5877 5879 5880 5881 5882 5883 5883 5884 5885 5885 5886 5886 5886 5887 5887 5887 5887 5887 5887 5887 5887
5853 5854 5856 5857 5859 5860 5862 5864 5865 5867 5868 5869 5870 5870 5869 5870 5869 5869 5870 5870 5870 5869 5869 5870 5870 5870 5871 5872 5873 5875 5876 5877 5878 5879 5880 5880 5881 5882 5882 5882 5882 5883 5883 5883 5883 5883 5883 5883 5883
5849 5851 5852 5854 5856 5858 5859 5861 5863 5864 5866 5867 5867 5867 5866 5866 5866 5866 5866 5866 5866 5866 5865 5866 5866 5867 5867 5868 5869 5871 5872 5873 5874 5875 5876 5877 5877 5878 5878 5878 5878 5878 5879 5879 5879 5879 5879 5879 5879
5846 5848 5849 5851 5853 5855 5857 5859 5860 5861 5863 5864 5864 5863 5863 5862 5863 5863 5862 5862 5861 5861 5862 5862 5863 5863 5864 5865 5866 5866 5867 5868 5870 5871 5872 5872 5873 5873 5874 5874 5874 5874 5874 5874 5874 5874 5874 5874 5874
5843 5845 5846 5848 5851 5853 5854 5856 5857 5858 5859 5860 5860 5859 5859 5859 5859 5859 5858 5858 5859 5858 5858 5858 5859 5859 5859 5860 5861 5862 5863 5864 5865 5866 5867 5868 5868 5869 5869 5869 5870 5869 5869 5870 5869 5869 5870 5869 5870
5840 5842 5844 5846 5848 5850 5852 5853 5855 5855 5856 5856 5857 5856 5856 5857 5856 5856 5855 5855 5855 5855 5855 5854 5854 5854 5855 5856 5858 5859 5859 5860 5861 5862 5862 5863 5863 5864 5865 5865 5865 5865 5864 5864 5864 5865 5865 5865 5865
5837 5840 5841 5843 5845 5847 5849 5851 5852 5852 5853 5853 5853 5853 5853 5853 5853 5852 5852 5851 5852 5852 5851 5850 5850 5850 5851 5853 5854 5855 5855 5856 5856 5857 5857 5858 5858 5859 5860 5860 5859 5859 5859 5859 5859 5859 5859 5859 5859
5834 5837 5839 5841 5842 5844 5848 5848 5849 5849 5850 5850 5850 5850 5849 5849 5849 5849 5848 5848 5848 5848 5847 5847 5846 5847 5847 5848 5849 5850 5851 5851 5852 5852 5852 5852 5853 5854 5854 5854 5854 5854 5854 5853 5853 5854 5854 5854 5854
5831 5834 5836 5838 5840 5841 5843 5845 5846 5846 5846 5846 5846 5846 5846 5845 5845 5845 5845 5844 5844 5844 5843 5843 5842 5843 5843 5844 5845 5846 5846 5847 5847 5847 5846 5847 5847 5848 5848 5849 5848 5848 5848 5848 5848 5848 5848 5848 5848
5829 5831 5833 5835 5836 5838 5840 5842 5843 5843 5843 5843 5843 5842 5842 5842 5842 5841 5841 5840 5840 5840 5839 5838 5838 5838 5839 5840 5841 5841 5842 5842 5841 5841 5841 5841 5842 5842 5843 5843 5842 5842 5842 5842 5842 5842 5842 5841 5841
5826 5828 5830 5832 5834 5836 5837 5838 5839 5840 5840 5840 5840 5840 5839 5838 5837 5837 5837 5836 5836 5836 5835 5834 5835 5835 5835 5835 5836 5836 5837 5837 5836 5836 5836 5836 5836 5836 5836 5836 5836 5836 5835 5835 5835 5835 5835 5835 5835
5823 5825 5827 5829 5831 5833 5834 5835 5836 5837 5837 5837 5837 5836 5835 5834 5833 5833 5833 5832 5832 5831 5831 5831 5831 5831 5831 5831 5831 5832 5831 5831 5831 5830 5830 5830 5830 5830 5830 5829 5829 5829 5828 5828 5828 5828 5828 5828 5828
5821 5823 5825 5827 5829 5830 5832 5833 5833 5834 5834 5833 5833 5833 5832 5831 5830 5829 5829 5829 5828 5827 5827 5827 5826 5827 5827 5826 5826 5825 5825 5825 5824 5824 5824 5824 5823 5823 5823 5822 5822 5822 5821 5821 5821 5821 5821 5821 5821
5819 5821 5823 5825 5826 5827 5830 5830 5831 5831 5831 5831 5830 5830 5829 5828 5827 5826 5825 5825 5825 5824 5823 5823 5823 5822 5822 5822 5821 5820 5820 5819 5819 5818 5818 5817 5816 5815 5815 5815 5814 5814 5814 5814 5814 5814 5814 5815 5815
5817 5819 5820 5822 5823 5825 5826 5827 5829 5828 5829 5829 5828 5827 5826 5825 5824 5822 5821 5821 5820 5819 5818 5818 5818 5818 5817 5816 5815 5815 5814 5813 5812 5812 5811 5810 5809 5808 5808 5807 5807 5807 5807 5807 5807 5807 5807 5807 5808
5814 5816 5818 5819 5820 5822 5823 5824 5825 5825 5826 5825 5824 5823 5822 5821 5819 5818 5817 5816 5815 5814 5813 5813 5812 5812 5811 5810 5809 5808 5807 5806 5805 5804 5803 5803 5802 5801 5800 5800 5799 5799 5799 5800 5800 5800 5800 5800 5801
5812 5814 5816 5816 5817 5819 5820 5820 5822 5822 5821 5821 5820 5819 5817 5816 5815 5813 5812 5811 5810 5809 5807 5807 5806 5805 5804 5804 5803 5802 5801 5799 5798 5797 5796 5795 5794 5794 5793 5792 5792 5792 5792 5792 5792 5793 5793 5793 5794
5810 5812 5814 5815 5815 5816 5817 5817 5819 5818 5817 5817 5816 5815 5813 5812 5810 5808 5807 5806 5804 5802 5801 5800 5800 5799 5798 5797 5796 5794 5793 5792 5791 5790 5789 5788 5787 5786 5786 5785 5785 5784 5784 5784 5784 5785 5785 5786 5786
5807 5808 5810 5812 5812 5813 5813 5814 5815 5814 5813 5813 5812 5811 5809 5807 5806 5804 5802 5800 5797 5795 5794 5794 5793 5792 5791 5789 5788 5787 5786 5785 5783 5782 5781 5780 5779 5779 5778 5778 5777 5777 5777 5777 5777 5777 5778 5778 5779
5805 5806 5807 5808 5808 5809 5810 5810 5811 5810 5810 5809 5808 5806 5804 5802 5800 5798 5796 5794 5793 5791 5789 5788 5787 5785 5784 5783 5781 5780 5779 5777 5776 5775 5774 5773 5772 5771 5770 5770 5769 5769 5769 5769 5770 5770 5770 5771 5772
5802 5804 5804 5805 5805 5806 5806 5809 5808 5807 5805 5804 5802 5800 5798 5796 5795 5793 5791 5789 5787 5785 5783 5782 5780 5779 5777 5776 5775 5773 5772 5770 5768 5767 5766 5765 5764 5763 5763 5762 5762 5762 5762 5762 5762 5762 5763 5763 5764
5799 5800 5801 5803 5803 5803 5803 5807 5803 5802 5801 5799 5797 5795 5793 5791 5789 5787 5785 5783 5781 5779 5777 5776 5774 5772 5771 5769 5768 5766 5764 5762 5761 5760 5758 5758 5757 5756 5755 5755 5755 5755 5754 5754 5755 5755 5755 5756 5757
Wind_Speed
15 15 15 15 16 16 17 18 18 17 16 14 12 11 10 10 9 9 10 10 9 9 8 9 10 10 9 8 8 8 7 7 7 7 7 6 6 6 6 7 8 8 8 8 8 8 8 8 8
15 15 15 15 16 17 19 19 19 18 17 15 13 12 12 11 10 11 11 11 11 10 10 10 11 11 10 9 9 9 9 9 9 9 8 8 8 8 8 8 9 9 9 9 9 9 8 8 8
16 15 15 15 17 19 20 20 20 18 17 15 14 13 12 12 12 13 13 13 13 13 12 11 12 12 11 11 11 10 10 10 10 10 10 10 10 10 9 10 10 10 10 10 9 9 9 9 9
17 16 16 16 18 20 22 21 20 18 16 15 14 13 12 12 13 15 15 16 16 15 13 13 13 13 13 13 12 12 12 12 11 11 11 11 11 11 11 11 11 11 11 11 11 11 10 10 10
17 17 17 17 19 21 22 23 21 19 17 15 15 14 13 13 14 15 17 17 16 15 15 15 15 14 14 14 14 14 14 13 13 13 13 13 12 12 13 13 13 13 13 13 13 13 12 12 11
17 17 18 19 21 22 23 23 21 19 18 17 16 15 14 15 16 17 18 17 16 16 16 16 16 16 16 15 15 15 15 15 14 14 14 14 14 14 14 14 14 14 15 15 15 15 14 14 13
18 18 19 20 22 23 24 23 21 19 18 17 16 16 16 17 18 19 18 17 17 18 18 17 17 18 17 16 16 16 16 16 15 15 15 15 16 15 15 15 16 16 17 17 17 16 16 16 16
19 20 21 22 23 24 24 23 22 20 19 18 16 16 17 19 19 18 18 18 18 19 18 18 18 18 17 16 16 17 17 17 16 16 16 16 17 17 17 17 17 18 18 19 19 18 18 18 18
19 21 22 23 24 24 24 23 22 21 19 18 17 16 17 19 19 18 19 19 19 20 19 19 18 18 17 17 17 18 18 18 18 18 18 18 18 18 18 18 18 19 20 20 21 21 20 20 20
20 22 23 23 25 25 24 24 22 21 20 18 17 17 18 19 19 18 18 18 19 20 19 19 18 18 17 18 19 19 19 19 19 19 19 19 19 19 19 20 19 20 21 21 21 21 22 22 22
21 22 24 24 25 25 25 24 23 22 21 19 18 18 19 19 18 18 18 19 20 19 18 17 19 18 18 19 19 20 20 20 19 19 19 19 20 20 21 21 20 21 21 22 22 22 22 23 23
22 23 24 25 25 25 25 24 24 23 21 20 19 19 19 19 19 19 18 18 19 18 18 19 18 19 19 19 19 19 20 19 19 19 20 21 21 22 22 21 21 22 22 23 24 24 23 23 23
23 24 24 25 25 25 25 25 24 24 23 22 21 21 21 20 18 18 18 17 16 16 16 16 17 18 17 18 19 19 20 20 20 20 21 22 22 22 22 22 22 22 23 24 24 24 24 23 23
23 24 25 25 25 25 26 25 25 24 24 23 22 22 21 21 19 19 18 18 17 16 16 15 16 15 14 16 18 19 20 20 21 21 21 22 23 23 23 23 23 24 24 25 26 25 25 24 23
22 23 24 25 25 25 25 25 25 24 24 23 22 22 21 21 20 18 17 17 16 16 16 15 14 15 15 17 18 19 20 20 21 22 22 22 23 23 24 24 24 24 25 25 25 25 25 25 24
22 23 24 24 25 25 24 25 24 23 22 22 21 21 20 19 18 17 17 17 17 17 17 16 15 15 16 17 19 19 19 19 20 20 21 21 22 23 24 24 25 25 25 26 26 26 26 26 26
20 22 23 24 25 24 24 24 22 21 20 19 19 19 19 18 18 17 18 17 17 18 19 17 16 16 16 17 19 19 19 18 20 21 21 21 22 24 24 24 25 25 26 26 27 27 27 27 27
19 21 23 24 24 24 22 22 21 18 17 16 17 17 18 19 18 18 18 18 18 18 19 18 17 17 17 17 18 17 18 18 19 20 21 22 22 24 25 25 26 26 26 27 28 28 28 28 28
20 21 22 23 23 21 20 19 18 17 16 16 17 17 17 19 19 18 18 19 19 17 17 17 17 17 18 18 18 19 19 20 20 20 21 22 23 24 25 25 27 28 28 28 28 28 28 28 29
20 20 21 21 21 20 18 16 15 15 16 17 17 17 17 18 17 17 17 17 18 18 17 16 16 17 18 18 19 21 21 20 21 22 22 23 24 25 25 26 28 29 29 29 28 28 28 28 28
19 19 19 19 18 18 18 16 14 14 16 16 17 17 17 16 16 16 17 17 17 17 17 17 17 18 18 19 21 22 22 21 22 22 23 24 25 26 27 27 28 28 29 29 28 28 28 28 28
19 19 19 18 18 17 17 16 14 14 15 16 17 17 16 16 16 16 18 19 18 17 18 18 19 19 20 21 22 22 23 23 24 24 24 25 27 27 28 28 28 28 29 29 28 27 27 27 27
18 19 19 19 18 18 17 17 15 15 15 16 17 17 17 17 18 18 18 19 19 19 20 21 21 21 21 22 23 24 25 25 26 26 26 27 28 28 28 29 28 28 28 28 28 28 27 27 27
18 19 19 19 19 18 17 17 15 15 15 16 18 18 18 18 18 19 19 19 20 21 21 21 22 22 23 23 24 25 26 27 27 27 28 28 28 28 28 29 28 28 28 28 28 27 27 27 26
18 18 19 19 19 17 16 16 15 15 16 17 17 18 19 18 18 18 19 21 22 23 24 24 24 24 25 25 26 26 27 27 28 28 28 28 28 28 28 28 28 28 28 27 27 27 27 26 26
17 17 18 19 19 18 17 18 16 17 18 17 17 17 18 19 19 19 21 22 24 25 25 25 25 25 26 27 27 27 28 28 28 28 28 28 28 28 28 28 28 28 28 28 27 27 27 26 26
17 17 17 18 19 19 18 17 17 18 18 17 18 18 19 19 20 21 21 22 23 23 24 25 25 26 27 27 27 27 28 28 28 27 27 27 27 27 27 27 27 27 28 28 27 27 26 26 26
17 17 17 17 18 19 18 17 17 17 17 18 18 19 20 21 21 21 21 21 21 23 24 24 25 26 26 26 27 27 27 27 27 27 27 27 27 27 27 27 27 27 27 27 27 27 27 26 26
16 17 17 17 17 18 18 16 16 16 17 18 19 20 20 20 21 20 21 21 21 21 21 23 23 24 25 25 26 26 27 26 26 26 27 26 27 26 25 25 25 26 25 25 26 26 26 26 25
17 17 17 17 17 18 18 17 17 18 18 19 20 20 20 21 21 20 21 22 21 21 21 21 22 23 23 24 25 25 26 26 26 25 25 26 26 25 24 24 24 24 24 23 23 23 23 24 24
Wind_Direction
251 247 245 243 242 240 240 244 246 249 249 255 258 267 280 286 300 312 313 313 303 295 287 274 264 258 254 252 247 241 241 246 250 254 261 268 275 280 287 294 299 305 311 316 320 326 331 333 334
246 244 241 239 238 237 238 242 244 248 251 254 258 266 277 289 298 307 310 309 303 297 288 275 260 254 252 251 248 245 245 249 253 257 262 266 269 273 278 283 287 292 299 305 310 313 318 322 323
240 238 236 234 234 235 239 242 243 245 249 253 258 268 278 292 302 309 308 308 303 296 287 275 261 254 250 248 246 246 248 251 254 257 261 266 269 271 275 280 284 287 292 296 299 304 308 310 312
238 234 232 231 230 233 238 241 242 245 247 250 255 264 278 291 300 304 307 305 302 296 282 272 259 253 250 245 243 245 247 250 254 258 261 265 270 272 275 279 283 286 290 292 293 295 300 300 300
234 231 228 226 227 232 237 241 241 242 246 249 258 267 278 289 297 302 305 304 300 295 282 272 258 251 249 245 243 246 248 251 254 257 261 265 269 273 277 280 281 285 288 290 292 292 294 296 295
229 226 223 222 225 230 236 240 243 244 247 253 262 271 279 289 296 300 303 303 301 290 279 271 258 249 247 247 247 247 250 254 256 258 260 263 266 269 275 279 280 282 285 286 286 288 288 290 290
224 222 220 221 224 228 235 240 243 246 249 256 264 271 281 292 296 299 302 299 297 292 280 268 262 247 245 245 246 248 250 253 253 256 260 262 264 266 271 274 277 279 282 283 283 284 285 287 287
222 220 220 221 223 228 236 240 245 248 252 257 263 274 285 293 295 298 300 296 292 292 282 272 264 251 242 240 243 245 247 249 250 253 257 260 263 265 268 271 274 276 279 281 281 281 282 283 283
221 220 219 220 221 228 236 240 245 251 254 260 268 278 287 291 295 297 298 296 291 289 282 274 265 256 247 241 241 244 246 247 249 252 256 258 262 264 266 271 273 274 277 280 281 281 279 280 279
219 219 220 222 224 229 236 242 246 251 257 263 270 279 286 291 293 294 296 296 290 288 278 269 260 255 248 241 240 244 247 247 248 252 256 259 262 263 265 269 271 271 273 276 278 279 278 278 278
219 219 222 224 226 231 237 242 246 252 257 262 269 275 285 290 292 293 294 294 291 288 277 266 256 253 248 241 242 244 247 247 250 253 256 259 261 262 264 267 269 270 272 273 276 277 276 276 276
219 220 222 225 229 233 239 243 248 253 258 263 269 275 282 287 291 294 293 296 291 284 282 274 260 255 250 247 244 243 245 247 251 254 256 258 260 262 263 266 268 269 271 272 274 277 277 276 276
220 222 224 226 230 235 241 245 251 255 258 264 270 275 282 289 291 293 293 293 291 283 279 270 262 254 248 244 246 247 247 249 252 254 254 257 260 263 265 266 268 270 271 272 274 276 276 277 275
222 225 227 229 232 238 243 249 254 257 260 266 271 277 284 288 291 292 291 290 285 283 277 272 264 253 254 251 250 255 253 251 253 254 254 257 260 263 266 267 268 270 273 273 272 272 274 276 275
224 226 229 231 233 237 243 249 255 260 263 269 275 279 283 285 288 290 288 286 282 279 278 271 265 260 259 256 253 255 252 251 252 254 255 257 258 262 266 267 269 271 273 275 274 272 270 271 271
225 226 228 231 235 239 244 248 255 261 266 269 273 277 279 281 282 286 287 285 283 281 278 272 267 261 262 258 253 253 253 254 254 258 259 258 260 263 267 269 271 272 273 273 273 273 271 269 269
225 226 228 232 235 240 243 247 252 257 262 267 272 276 275 277 281 281 286 289 284 281 279 269 264 261 260 257 254 253 255 259 261 262 263 262 263 266 268 270 271 272 273 272 272 271 271 270 269
227 227 228 232 236 239 242 246 250 254 258 266 273 276 278 280 283 282 283 286 283 282 277 271 268 266 263 260 258 260 262 264 266 267 267 267 267 269 270 271 271 272 273 273 272 273 272 271 269
226 228 230 232 237 239 241 244 247 251 256 264 273 277 281 284 284 283 284 286 284 282 278 272 272 271 267 265 261 263 266 266 268 269 269 269 270 269 271 272 272 272 273 273 273 273 272 270 269
225 227 227 229 235 238 239 245 250 255 262 269 278 284 286 282 280 283 284 283 283 280 276 271 271 272 269 268 266 267 270 271 270 268 268 269 271 271 272 273 272 272 272 273 273 273 272 271 270
223 225 227 231 235 240 242 247 253 261 272 277 280 283 284 284 280 281 281 279 282 281 276 273 272 273 270 271 272 272 273 274 273 271 272 274 273 273 273 273 272 272 271 272 272 273 272 271 270
221 224 228 232 239 242 246 250 258 266 272 280 283 286 286 284 283 285 282 280 282 281 277 276 276 275 274 274 275 277 276 276 275 275 274 275 275 274 273 273 272 271 271 271 271 272 271 271 270
220 225 230 236 242 245 249 253 260 266 273 280 284 287 284 285 286 288 283 279 282 282 279 277 275 275 276 276 277 278 278 278 277 275 274 274 274 273 273 272 272 270 270 270 271 270 270 269 269
222 226 232 239 245 248 254 260 265 272 277 283 287 287 286 286 288 286 282 282 283 284 280 276 275 275 275 277 278 278 278 279 277 276 275 274 274 273 273 273 271 269 269 269 269 268 269 268 267
224 228 234 240 244 248 255 264 272 275 279 285 290 290 288 286 287 286 283 281 282 282 280 278 276 277 277 277 277 278 279 278 277 276 275 275 274 273 273 273 272 270 269 269 268 267 267 267 266
229 233 239 244 248 253 260 268 276 277 280 283 288 292 291 289 286 287 287 284 284 281 277 276 278 279 278 278 278 278 278 279 278 276 276 275 275 274 273 272 272 271 270 270 268 267 267 266 266
232 236 241 247 253 259 265 271 275 277 279 282 285 288 290 291 292 293 291 290 287 281 278 278 278 279 278 278 278 278 279 279 277 276 276 276 275 274 273 272 272 272 271 270 269 268 266 266 265
237 241 245 250 257 262 267 272 279 282 283 286 288 289 288 289 293 294 291 290 288 285 281 280 280 280 280 281 280 279 279 279 279 278 276 276 275 274 273 273 273 272 271 271 270 268 267 265 263
237 241 247 254 261 267 272 276 283 286 287 292 294 295 294 293 294 292 292 293 290 287 284 283 281 281 281 280 280 279 279 280 280 278 277 276 275 274 274 275 275 273 272 270 268 267 267 265 263
242 244 250 257 262 267 274 280 284 288 293 297 298 298 298 296 294 293 292 293 291 288 286 284 283 283 283 283 283 282 281 281 280 281 280 277 275 275 275 275 274 272 271 270 268 267 267 265 263